Stations météo

réclame
Mon MeteoGroup
Brize Norton, Grande-Bretagne (3649): Température de l'air & dewpoint: 26.11.2020 03:00:00 - 02.12.2020 03:00:00 (GMT)Brize Norton, Grande-Bretagne (3649): Température de l'air -20cm & Température de l'air -100cm: 26.11.2020 03:00:00 - 02.12.2020 03:00:00 (GMT)Brize Norton, Grande-Bretagne (3649): Vitesse du vent & gusts: 26.11.2020 03:00:00 - 02.12.2020 03:00:00 (GMT)Brize Norton, Grande-Bretagne (3649): Direction du vent: 26.11.2020 03:00:00 - 02.12.2020 03:00:00 (GMT)Brize Norton, Grande-Bretagne (3649): reduced air pressure: 26.11.2020 03:00:00 - 02.12.2020 03:00:00 (GMT)Brize Norton, Grande-Bretagne (3649): visibility: 26.11.2020 03:00:00 - 02.12.2020 03:00:00 (GMT)Brize Norton, Grande-Bretagne (3649): Ensoleillement: 26.11.2020 03:00:00 - 02.12.2020 03:00:00 (GMT)Brize Norton, Grande-Bretagne (3649): Quantités de précipitations: 26.11.2020 03:00:00 - 02.12.2020 03:00:00 (GMT)
Date & Time tt [°C] td [°C] tt -20cm [°C] tt -100cm [°C] ff [km/h] ff [knt] fx [km/h] fx [knt] dd ppp [hPa] vv [km] sd [min] rr [mm]
02.12.2020 03:00:00 1,9 0,5 - - 2 1 - - SW 1024,4 10 0 0,0
02.12.2020 02:00:00 2,5 1,2 - - 4 2 - - SSW 1024,8 10 0 0,0
02.12.2020 01:00:00 1,9 0,4 - - 2 1 - - SE 1025,5 10 0 0,0
02.12.2020 00:00:00 3,3 1,0 - - 4 2 - - SW 1026,1 10 - 0,0
01.12.2020 23:00:00 3,7 1,0 - - 8 4 - - W 1026,6 10 0 0,0
01.12.2020 22:00:00 3,7 0,9 - - 4 2 - - W 1026,7 10 0 0,0
01.12.2020 21:00:00 3,6 0,8 - - 11 6 - - NW 1027,1 10 0 0,0
01.12.2020 20:00:00 3,7 0,8 - - 9 5 - - NW 1027,0 10 0 0,0
01.12.2020 19:00:00 3,0 0,5 - - 5 3 - - W 1027,1 10 0 0,0
01.12.2020 18:00:00 3,3 0,5 - - 5 3 - - NW 1027,1 10 0 0,0
01.12.2020 17:00:00 4,4 1,0 - - 5 3 - - WNW 1026,9 10 0 0,0
01.12.2020 16:00:00 5,3 1,4 - - 11 6 - - NW 1027,0 10 0 0,0
01.12.2020 15:00:00 6,7 1,5 - - 15 8 - - NNW 1027,2 10 60 0,0
01.12.2020 14:00:00 7,1 1,7 - - 15 8 - - N 1027,2 10 60 0,0
01.12.2020 13:00:00 7,0 1,5 - - 11 6 - - N 1027,5 10 60 0,0
01.12.2020 12:00:00 6,6 1,4 - - 15 8 - - N 1027,9 10 60 0,0
01.12.2020 11:00:00 6,2 1,2 - - 11 6 - - NNW 1027,9 10 54 0,0
01.12.2020 10:00:00 3,9 0,6 - - 11 6 - - NW 1028,0 10 18 0,0
01.12.2020 09:00:00 3,9 0,5 9,0 10,7 15 8 - - NNW 1027,6 10 6 0,0
01.12.2020 08:00:00 2,9 0,3 - - 18 10 - - NNW 1027,2 40 0 0,0
01.12.2020 07:00:00 3,9 0,5 - - 16 9 - - NNW 1026,7 10 0 0,0
01.12.2020 06:00:00 3,3 0,5 - - 16 9 - - NW 1026,4 10 0 0,0
01.12.2020 05:00:00 3,7 0,8 - - 16 9 - - NW 1025,9 10 0 0,0
01.12.2020 04:00:00 3,4 0,8 - - 15 8 - - NW 1025,5 10 0 0,0
01.12.2020 03:00:00 3,9 1,7 - - 13 7 - - NW 1025,6 10 0 0,0
01.12.2020 02:00:00 4,0 1,6 - - 11 6 - - NNW 1025,3 10 0 0,0
01.12.2020 01:00:00 4,9 2,0 - - 13 7 - - NW 1024,7 10 0 0,0
01.12.2020 00:00:00 5,2 2,1 - - 15 8 - - NW 1024,3 30 - 0,0
30.11.2020 23:00:00 6,1 2,2 - - 16 9 - - NNW 1024,1 10 0 0,0
30.11.2020 22:00:00 7,1 2,4 - - 15 8 - - NW 1023,6 10 0 0,0
30.11.2020 21:00:00 8,5 3,0 - - 24 13 50 27 NNW 1022,7 10 0 0,4
30.11.2020 20:00:00 9,9 7,9 - - 15 8 - - WNW 1021,5 25 0 0,0
30.11.2020 19:00:00 10,4 7,2 - - 11 6 - - W 1021,1 10 0 0,0
30.11.2020 18:00:00 10,1 7,0 - - 13 7 - - W 1021,2 10 0 0,0
30.11.2020 17:00:00 10,1 7,2 - - 9 5 - - WSW 1021,5 10 0 0,0
30.11.2020 16:00:00 9,7 7,5 - - 9 5 - - WSW 1021,2 10 0 0,0
30.11.2020 15:00:00 9,5 7,6 - - 16 9 - - W 1021,4 8 0 0,0
30.11.2020 14:00:00 9,2 7,5 - - 13 7 - - WSW 1022,1 7 0 0,0
30.11.2020 13:00:00 8,9 7,3 - - 15 8 - - W 1023,1 6 0 0,0
30.11.2020 12:00:00 7,9 7,7 - - 13 7 - - WSW 1024,1 4,0 0 0,2
30.11.2020 11:00:00 6,9 6,9 - - 11 6 - - WSW 1025,0 3,5 0 0,0
30.11.2020 10:00:00 6,0 6,0 - - 8 4 - - SW 1025,7 0,3 0 0,0
30.11.2020 09:00:00 5,4 5,4 9,0 10,9 8 4 - - WSW 1026,3 0,7 0 0,0
30.11.2020 08:00:00 5,5 5,5 - - 8 4 - - WSW 1026,3 0,4 0 0,0
30.11.2020 07:00:00 5,3 5,3 - - 5 3 - - SW 1026,3 0,4 0 0,0
30.11.2020 06:00:00 5,6 5,6 - - 5 3 - - SW 1026,8 0,3 0 0,0
30.11.2020 05:00:00 5,7 5,7 - - 4 2 - - SW 1027,0 0,3 0 0,0
30.11.2020 04:00:00 5,5 5,5 - - 4 2 - - SW 1026,8 0,2 0 0,0
30.11.2020 03:00:00 5,7 5,7 - - 5 3 - - SW 1027,2 0,3 0 0,0
30.11.2020 02:00:00 5,5 5,5 - - 4 2 - - WSW 1027,6 0,2 0 0,2
30.11.2020 01:00:00 5,4 5,4 - - 8 4 - - SW 1027,4 0,1 0 0,0
30.11.2020 00:00:00 5,4 5,4 - - 15 8 - - NW 1027,5 10 - 0,0
29.11.2020 23:00:00 5,5 5,5 - - 5 3 - - W 1027,9 2,0 0 0,0
29.11.2020 22:00:00 5,6 5,5 - - 5 3 - - WNW 1027,8 2,0 0 0,0
29.11.2020 21:00:00 5,4 5,3 - - 4 2 - - WSW 1027,8 0,3 0 0,0
29.11.2020 20:00:00 5,3 5,2 - - 4 2 - - WSW 1027,5 0,7 0 0,0
29.11.2020 19:00:00 5,3 5,2 - - 5 3 - - WNW 1027,5 0,8 0 0,0
29.11.2020 18:00:00 5,6 5,5 - - 4 2 - - NW 1027,4 0,4 0 0,0
29.11.2020 17:00:00 5,6 5,5 - - 4 2 - - SSW 1027,1 0,3 0 0,0
29.11.2020 16:00:00 5,9 5,8 - - 4 2 - - S 1026,9 0,3 0 0,0
29.11.2020 15:00:00 5,9 5,8 - - 4 2 - - SSE 1026,7 0,4 0 0,0
29.11.2020 14:00:00 6,2 6,1 - - 5 3 - - SSE 1026,5 0,6 0 0,0
29.11.2020 13:00:00 5,9 5,8 - - 4 2 - - NNW 1026,9 0,5 0 0,0
29.11.2020 12:00:00 5,9 5,7 - - 5 3 - - ENE 1027,0 0,5 0 0,0
29.11.2020 11:00:00 5,8 5,6 - - 8 4 - - E 1026,8 0,3 0 0,0
29.11.2020 10:00:00 5,7 5,5 - - 9 5 - - ENE 1026,6 0,3 0 0,0
29.11.2020 09:00:00 5,9 5,6 8,7 11,0 8 4 - - ENE 1026,2 0,3 0 0,0
29.11.2020 08:00:00 6,1 5,7 - - 8 4 - - ENE 1025,9 0,4 0 0,0
29.11.2020 07:00:00 6,3 5,7 - - 9 5 - - NE 1025,4 1,8 0 0,0
29.11.2020 06:00:00 6,6 5,7 - - 11 6 - - ENE 1024,9 2,0 0 0,0
29.11.2020 05:00:00 7,0 5,8 - - 9 5 - - E 1024,8 3,0 0 0,0
29.11.2020 04:00:00 7,7 6,3 - - 11 6 - - ENE 1024,7 3,5 0 0,0
29.11.2020 03:00:00 8,0 6,7 - - 11 6 - - ENE 1024,5 3,5 0 0,0
29.11.2020 02:00:00 8,1 6,8 - - 9 5 - - NE 1024,2 3,5 0 0,0
29.11.2020 01:00:00 8,3 7,2 - - 8 4 - - E 1023,9 3,0 0 0,0
29.11.2020 00:00:00 8,5 7,3 - - 13 7 - - ENE 1023,7 3,5 - 0,0
28.11.2020 23:00:00 8,6 7,6 - - 5 3 - - E 1023,2 2,5 0 0,0
28.11.2020 22:00:00 8,8 7,7 - - 8 4 - - E 1022,8 3,5 0 0,0
28.11.2020 21:00:00 8,8 7,8 - - 8 4 - - NE 1022,2 3,0 0 0,0
28.11.2020 20:00:00 8,9 8,0 - - 9 5 - - NE 1021,7 3,0 0 0,0
28.11.2020 19:00:00 8,6 7,8 - - 11 6 - - E 1021,3 2,5 0 0,0
28.11.2020 18:00:00 8,6 7,8 - - 8 4 - - E 1020,7 2,5 0 0,0
28.11.2020 17:00:00 8,5 7,6 - - 9 5 - - E 1020,2 2,5 0 0,0
28.11.2020 16:00:00 8,7 7,7 - - 11 6 - - E 1019,6 2,5 0 0,0
28.11.2020 15:00:00 8,8 7,9 - - 13 7 - - E 1019,0 2,5 0 0,0
28.11.2020 14:00:00 8,7 8,0 - - 11 6 - - E 1018,5 2,2 0 0,0
28.11.2020 13:00:00 8,7 8,1 - - 13 7 - - ENE 1018,4 1,8 0 0,0
28.11.2020 12:00:00 8,2 7,9 - - 9 5 - - ENE 1018,1 1,8 0 0,0
28.11.2020 11:00:00 7,7 7,5 - - 11 6 - - ENE 1017,7 1,2 0 0,0
28.11.2020 10:00:00 7,0 6,8 - - 13 7 - - E 1017,5 1,2 0 0,0
28.11.2020 09:00:00 6,7 6,4 8,2 11,2 11 6 - - ENE 1017,0 1,2 0 0,2
28.11.2020 08:00:00 6,2 5,9 - - 16 9 - - ENE 1016,5 1,2 0 0,0
28.11.2020 07:00:00 5,9 5,6 - - 16 9 - - ENE 1016,0 1,5 0 0,2
28.11.2020 06:00:00 5,4 5,1 - - 16 9 - - ENE 1015,5 2,0 0 0,6
28.11.2020 05:00:00 5,3 4,8 - - 11 6 - - ENE 1015,7 2,0 0 0,0
28.11.2020 04:00:00 5,1 4,5 - - 13 7 - - NE 1015,5 2,0 0 0,0
28.11.2020 03:00:00 4,7 4,0 - - 9 5 - - ENE 1016,0 2,2 0 0,0
28.11.2020 02:00:00 4,3 3,6 - - 9 5 - - ENE 1015,9 2,5 0 0,0
28.11.2020 01:00:00 4,1 3,3 - - 11 6 - - ENE 1016,0 2,5 0 0,0
28.11.2020 00:00:00 3,8 3,2 - - 11 6 - - NE 1016,4 2,5 - 0,0
27.11.2020 23:00:00 3,1 2,6 - - 13 7 - - NE 1016,5 2,5 0 0,0
27.11.2020 22:00:00 2,6 1,9 - - 2 1 - - E 1016,9 3,0 0 0,0
27.11.2020 21:00:00 3,3 2,7 - - 11 6 - - ENE 1016,7 2,5 0 0,0
27.11.2020 20:00:00 3,5 2,7 - - 9 5 - - ENE 1017,1 3,0 0 0,0
27.11.2020 19:00:00 4,1 3,1 - - 5 3 - - ENE 1017,3 2,5 0 0,0
27.11.2020 18:00:00 4,3 3,2 - - 13 7 - - NE 1017,4 3,0 0 0,0
27.11.2020 17:00:00 4,1 3,2 - - 8 4 - - ENE 1017,8 3,0 0 0,0
27.11.2020 16:00:00 3,9 2,9 - - 11 6 - - NE 1017,9 3,8 0 0,0
27.11.2020 15:00:00 3,7 3,4 - - 13 7 - - NE 1018,0 3,8 0 0,0
27.11.2020 14:00:00 3,5 3,5 - - 9 5 - - NE 1018,5 3,0 0 0,0
27.11.2020 13:00:00 3,0 3,0 - - 11 6 - - ENE 1019,1 0,7 0 0,0
27.11.2020 12:00:00 2,6 2,5 - - 4 2 - - ESE 1019,7 0,2 0 0,2
27.11.2020 11:00:00 1,3 1,1 - - 2 1 - - SSE 1020,5 0,3 0 0,0
27.11.2020 10:00:00 -0,6 -0,8 - - 2 1 - - S 1021,1 0,3 0 0,0
27.11.2020 09:00:00 -2,1 -2,5 8,7 11,4 2 1 - - SSE 1021,3 0,2 0 0,0
27.11.2020 08:00:00 -3,7 -4,2 - - 4 2 - - E 1021,4 0,3 0 0,0
27.11.2020 07:00:00 -3,3 -3,8 - - 2 1 - - NE 1021,5 0,3 0 0,0
27.11.2020 06:00:00 -3,6 -4,2 - - 0 0 - - N 1021,6 0,6 0 0,0
27.11.2020 05:00:00 -3,2 -3,8 - - 2 1 - - S 1021,5 0,8 0 0,0
27.11.2020 04:00:00 -3,2 -3,8 - - 2 1 - - ESE 1021,7 0,9 0 0,0
27.11.2020 03:00:00 -3,2 -3,7 - - 0 0 - - N 1022,0 0,9 0 0,0
27.11.2020 02:00:00 -2,7 -3,2 - - 0 0 - - N 1022,2 0,5 0 0,0
27.11.2020 01:00:00 -2,2 -2,8 - - 0 0 - - N 1022,2 2,0 0 0,0
27.11.2020 00:00:00 -1,2 -1,7 - - 0 0 - - N 1022,1 3,5 - 0,0
26.11.2020 23:00:00 -1,0 -1,5 - - 2 1 - - W 1022,0 3,5 0 0,0
26.11.2020 22:00:00 -0,2 -0,6 - - 2 1 - - WNW 1022,3 3,5 0 0,0
26.11.2020 21:00:00 0,3 -0,3 - - 2 1 - - S 1022,3 3,0 0 0,0
26.11.2020 20:00:00 1,0 0,4 - - 0 0 - - N 1022,3 4,5 0 0,0
26.11.2020 19:00:00 1,8 0,8 - - 4 2 - - NNW 1022,3 7 0 0,0
26.11.2020 18:00:00 3,3 2,4 - - 0 0 - - N 1021,9 10 0 0,0
26.11.2020 17:00:00 4,3 3,0 - - 2 1 - - N 1021,5 10 0 0,0
26.11.2020 16:00:00 6,3 4,1 - - 2 1 - - S 1021,3 10 12 0,0
26.11.2020 15:00:00 8,4 4,0 - - 0 0 - - N 1021,0 20 60 0,0
26.11.2020 14:00:00 8,7 4,2 - - 2 1 - - E 1021,2 10 60 0,0
26.11.2020 13:00:00 8,0 4,0 - - 2 1 - - SSE 1021,6 10 60 0,0
26.11.2020 12:00:00 7,0 3,4 - - 2 1 - - S 1021,8 10 60 0,0
26.11.2020 11:00:00 3,8 2,4 - - 5 3 - - NW 1022,5 10 42 0,0
26.11.2020 10:00:00 2,4 0,8 - - 2 1 - - WSW 1022,5 10 54 0,0
26.11.2020 09:00:00 0,4 0,0 9,7 11,5 2 1 - - W 1022,7 10 18 0,0
26.11.2020 08:00:00 -1,2 -1,7 - - 2 1 - - NW 1022,2 10 0 0,0
26.11.2020 07:00:00 -1,3 -1,7 - - 0 0 - - N 1021,7 10 0 0,0
26.11.2020 06:00:00 -0,8 -1,3 - - 4 2 - - WSW 1021,3 10 0 0,0
26.11.2020 05:00:00 -0,7 -1,1 - - 4 2 - - W 1021,4 10 0 0,0
26.11.2020 04:00:00 -0,8 -1,4 - - 4 2 - - WSW 1021,4 7 0 0,0
26.11.2020 03:00:00 -0,2 -0,7 - - 4 2 - - SW 1021,1 5 0 0,0

tt = Température de l'air
td = dewpoint
tt -20cm = Température de l'air -20cm
tt -100cm = Température de l'air -100cm
ff = Vitesse du vent
fx = gusts
dd = Direction du vent
ppp = reduced air pressure
vv = visibility
sd = Ensoleillement
rr = Quantités de précipitations

stations d'obs. à proximité